This is the latest recevied weather packets stored in our database for station/object N3SBK. If no packets are shown the sender has not sent any weather packets the latest 10 day(s).
| Time | Temp. | Humidity | Pressure | Rain* | Wind** | Luminosity | Snow |
|---|---|---|---|---|---|---|---|
| 1787963515 | 18.33° C | 88% | 1012.6 hPa | 0 mm | - | 0 W/m² | - |
| 1787963211 | 18.33° C | 88% | 1012.5 hPa | 0 mm | - | 0 W/m² | - |
| 1787962910 | 18.33° C | 87% | 1012.4 hPa | 0 mm | - | 0 W/m² | - |
| 1787962610 | 18.89° C | 86% | 1012.4 hPa | 0 mm | - | 0 W/m² | - |
| 1787962310 | 18.89° C | 86% | 1012.3 hPa | 0 mm | - | 0 W/m² | - |
| 1787962005 | 18.89° C | 84% | 1012.2 hPa | 0 mm | - | 0 W/m² | - |
| 1787961699 | 18.89° C | 82% | 1012.3 hPa | 0 mm | - | 1 W/m² | - |
| 1787961399 | 19.44° C | 82% | 1012.2 hPa | 0 mm | - | 1 W/m² | - |
| 1787961098 | 19.44° C | 80% | 1012 hPa | 0 mm | - | 2 W/m² | - |
| 1787960797 | 20° C | 80% | 1012.2 hPa | 0 mm | - | 4 W/m² | - |
| 1787960492 | 20° C | 79% | 1012 hPa | 0 mm | - | 5 W/m² | - |
| 1787960192 | 20° C | 78% | 1012 hPa | 0 mm | - | 7 W/m² | - |
| 1787959886 | 20.56° C | 78% | 1012.1 hPa | 0 mm | - | 9 W/m² | - |
| 1787959582 | 20.56° C | 77% | 1012.2 hPa | 0 mm | - | 12 W/m² | - |
| 1787959281 | 20.56° C | 75% | 1012.1 hPa | 0 mm | - | 15 W/m² | - |
| 1787958981 | 21.11° C | 75% | 1012.2 hPa | 0 mm | - | 16 W/m² | - |
| 1787958677 | 21.11° C | 74% | 1012.1 hPa | 0 mm | - | 18 W/m² | - |
| 1787958372 | 21.11° C | 73% | 1012 hPa | 0 mm | - | 19 W/m² | - |
| 1787958068 | 21.67° C | 74% | 1012 hPa | 0 mm | - | 23 W/m² | - |
| 1787957766 | 21.67° C | 71% | 1012.1 hPa | 0 mm | - | 24 W/m² | - |
| 1787957461 | 22.22° C | 72% | 1012.1 hPa | 0 mm | - | 24 W/m² | - |
| 1787957161 | 22.22° C | 72% | 1011.9 hPa | 0 mm | - | 27 W/m² | - |
| 1787956862 | 22.22° C | 71% | 1011.9 hPa | 0 mm | - | 29 W/m² | - |
| 1787956556 | 22.78° C | 70% | 1012 hPa | 0 mm | - | 35 W/m² | - |
| 1787956256 | 22.78° C | 69% | 1012.1 hPa | 0 mm | - | 51 W/m² | - |
* Rain latest hour (hover to see other rain measurements)
** Current wind speed in m/s (hover to see current wind gust speed)